Year,Month,Day,Hour,Minute,Value (Times are PST for temperature in C)
2013,09,19,08,46,14.10
2013,09,19,08,47,14.10
2013,09,19,08,48,14.10
2013,09,19,08,49,14.10
2013,09,19,08,50,14.20
2013,09,19,08,51,14.20
2013,09,19,08,52,14.20
2013,09,19,08,53,14.30
2013,09,19,08,54,14.30
2013,09,19,08,55,14.30
2013,09,19,08,56,14.40
2013,09,19,08,57,14.40
2013,09,19,08,58,14.40
2013,09,19,08,59,14.50
2013,09,19,09,00,14.50
2013,09,19,09,01,14.60
2013,09,19,09,02,14.60
2013,09,19,09,03,14.70
2013,09,19,09,04,14.70
2013,09,19,09,05,14.80
2013,09,19,09,06,14.80
2013,09,19,09,07,14.80
2013,09,19,09,08,14.90
2013,09,19,09,09,14.90
2013,09,19,09,10,15.00
2013,09,19,09,11,15.00
2013,09,19,09,12,15.00
2013,09,19,09,13,15.00
2013,09,19,09,14,15.00
2013,09,19,09,15,15.00
2013,09,19,09,16,15.00
2013,09,19,09,17,15.00
2013,09,19,09,18,15.00
2013,09,19,09,19,15.00
2013,09,19,09,20,15.00
2013,09,19,09,21,15.00
2013,09,19,09,22,15.00
2013,09,19,09,23,15.00
2013,09,19,09,24,15.00
2013,09,19,09,25,15.00
2013,09,19,09,26,15.00
2013,09,19,09,27,15.00
2013,09,19,09,28,15.00
2013,09,19,09,29,15.00
2013,09,19,09,30,15.00
2013,09,19,09,31,15.00
2013,09,19,09,32,15.00
2013,09,19,09,33,15.00
2013,09,19,09,34,15.00
2013,09,19,09,35,15.00
2013,09,19,09,36,15.00
2013,09,19,09,37,15.00
2013,09,19,09,38,15.00
2013,09,19,09,39,15.00
2013,09,19,09,40,15.00
2013,09,19,09,41,15.10
2013,09,19,09,42,15.10
2013,09,19,09,43,15.10
2013,09,19,09,44,15.10
2013,09,19,09,45,15.10
2013,09,19,09,46,15.10
2013,09,19,09,47,15.20
2013,09,19,09,48,15.20
2013,09,19,09,49,15.20
2013,09,19,09,50,15.30
2013,09,19,09,51,15.20
2013,09,19,09,52,15.20
2013,09,19,09,53,15.20
2013,09,19,09,54,15.20
2013,09,19,09,55,15.20
2013,09,19,09,56,15.20
2013,09,19,09,57,15.20
2013,09,19,09,58,15.20
2013,09,19,09,59,15.20
2013,09,19,10,00,15.20
2013,09,19,10,01,15.20
2013,09,19,10,02,15.20
2013,09,19,10,03,15.20
2013,09,19,10,04,15.20
2013,09,19,10,05,15.20
2013,09,19,10,06,15.20
2013,09,19,10,07,15.10
2013,09,19,10,08,15.20
2013,09,19,10,09,15.20
2013,09,19,10,10,15.20
2013,09,19,10,11,15.20
2013,09,19,10,12,15.20
2013,09,19,10,13,15.20
2013,09,19,10,14,15.20
2013,09,19,10,15,15.20
2013,09,19,10,16,15.20
2013,09,19,10,17,15.20
2013,09,19,10,18,15.20
2013,09,19,10,19,15.20
2013,09,19,10,20,15.20
2013,09,19,10,21,15.20
2013,09,19,10,22,15.30
2013,09,19,10,23,15.30
2013,09,19,10,24,15.30
2013,09,19,10,25,15.30
2013,09,19,10,26,15.30
2013,09,19,10,27,15.40
2013,09,19,10,28,15.40
2013,09,19,10,29,15.50
2013,09,19,10,30,15.50
2013,09,19,10,31,15.60
2013,09,19,10,32,15.60
2013,09,19,10,33,15.70
2013,09,19,10,34,15.70
2013,09,19,10,35,15.70
2013,09,19,10,36,15.70
2013,09,19,10,37,15.80
2013,09,19,10,38,15.80
2013,09,19,10,39,15.90
2013,09,19,10,40,15.90
2013,09,19,10,41,15.90
2013,09,19,10,42,15.90
2013,09,19,10,43,15.90
2013,09,19,10,44,16.00
2013,09,19,10,45,16.10
2013,09,19,10,46,16.00
2013,09,19,10,47,16.00
2013,09,19,10,48,15.90
2013,09,19,10,49,15.90
2013,09,19,10,50,15.80
2013,09,19,10,51,15.80
2013,09,19,10,52,15.90
2013,09,19,10,53,15.90
2013,09,19,10,54,15.90
2013,09,19,10,55,15.80
2013,09,19,10,56,15.80
2013,09,19,10,57,15.80
2013,09,19,10,58,15.80
2013,09,19,10,59,15.90
2013,09,19,11,00,16.00
2013,09,19,11,01,16.10
2013,09,19,11,02,16.10
2013,09,19,11,03,16.10
2013,09,19,11,04,16.00
2013,09,19,11,05,16.00
2013,09,19,11,06,16.00
2013,09,19,11,07,16.00
2013,09,19,11,08,16.00
2013,09,19,11,09,16.10
2013,09,19,11,10,16.10
2013,09,19,11,11,16.20
2013,09,19,11,12,16.20
2013,09,19,11,13,16.20
2013,09,19,11,14,16.20
2013,09,19,11,15,16.30
2013,09,19,11,16,16.30
2013,09,19,11,17,16.20
2013,09,19,11,18,16.20
2013,09,19,11,19,16.20
2013,09,19,11,20,16.20
2013,09,19,11,21,16.20
2013,09,19,11,22,16.20
2013,09,19,11,23,16.20
2013,09,19,11,24,16.30
2013,09,19,11,25,16.30
2013,09,19,11,26,16.30
2013,09,19,11,27,16.40
2013,09,19,11,28,16.40
2013,09,19,11,29,16.40
2013,09,19,11,30,16.40
2013,09,19,11,31,16.50
2013,09,19,11,32,16.50
2013,09,19,11,33,16.60
2013,09,19,11,34,16.60
2013,09,19,11,35,16.60
2013,09,19,11,36,16.60
2013,09,19,11,37,16.70
2013,09,19,11,38,16.70
2013,09,19,11,39,16.70
2013,09,19,11,40,16.70
2013,09,19,11,41,16.80
2013,09,19,11,42,16.90
2013,09,19,11,43,16.90
2013,09,19,11,44,17.00
2013,09,19,11,45,17.10
2013,09,19,11,46,17.10
2013,09,19,11,47,17.10
2013,09,19,11,48,17.10
2013,09,19,11,49,17.10
2013,09,19,11,50,17.10
2013,09,19,11,51,17.20
2013,09,19,11,52,17.20
2013,09,19,11,53,17.10
2013,09,19,11,54,17.10
2013,09,19,11,55,17.10
2013,09,19,11,56,17.00
2013,09,19,11,57,17.00
2013,09,19,11,58,17.00
2013,09,19,11,59,17.00
2013,09,19,12,00,17.10
2013,09,19,12,01,17.20
2013,09,19,12,02,17.20
2013,09,19,12,03,17.30
2013,09,19,12,04,17.30
2013,09,19,12,05,17.40
2013,09,19,12,06,17.40
2013,09,19,12,07,17.40
2013,09,19,12,08,17.50
2013,09,19,12,09,17.60
2013,09,19,12,10,17.60
2013,09,19,12,11,17.60
2013,09,19,12,12,17.70
2013,09,19,12,13,17.70
2013,09,19,12,14,17.80
2013,09,19,12,15,17.80
2013,09,19,12,16,17.80
2013,09,19,12,17,17.90
2013,09,19,12,18,18.00
2013,09,19,12,19,18.10
2013,09,19,12,20,18.10
2013,09,19,12,21,18.00
2013,09,19,12,22,18.00
2013,09,19,12,23,18.00
2013,09,19,12,24,18.00
2013,09,19,12,25,18.00
2013,09,19,12,26,18.00
2013,09,19,12,27,18.00
2013,09,19,12,28,18.10
2013,09,19,12,29,18.30
2013,09,19,12,30,18.30
2013,09,19,12,31,18.30
2013,09,19,12,32,18.40
2013,09,19,12,33,18.30
2013,09,19,12,34,18.30
2013,09,19,12,35,18.20
2013,09,19,12,36,18.20
2013,09,19,12,37,18.20
2013,09,19,12,38,18.20
2013,09,19,12,39,18.20
2013,09,19,12,40,18.30
2013,09,19,12,41,18.40
2013,09,19,12,42,18.50
2013,09,19,12,43,18.50
2013,09,19,12,44,18.60
2013,09,19,12,45,18.70
2013,09,19,12,46,18.80
2013,09,19,12,47,18.90
2013,09,19,12,48,18.90
2013,09,19,12,49,19.00
2013,09,19,12,50,19.00
2013,09,19,12,51,19.00
2013,09,19,12,52,19.00
2013,09,19,12,53,19.00
2013,09,19,12,54,19.00
2013,09,19,12,55,19.00
2013,09,19,12,56,18.90
2013,09,19,12,57,18.90
2013,09,19,12,58,18.90
2013,09,19,12,59,18.90
2013,09,19,13,00,18.80
2013,09,19,13,01,18.80
2013,09,19,13,02,18.80
2013,09,19,13,03,18.70
2013,09,19,13,04,18.70
2013,09,19,13,05,18.70
2013,09,19,13,06,18.70
2013,09,19,13,07,18.70
2013,09,19,13,08,18.70
2013,09,19,13,09,18.60
2013,09,19,13,10,18.50
2013,09,19,13,11,18.60
2013,09,19,13,12,18.60
2013,09,19,13,13,18.60
2013,09,19,13,14,18.60
2013,09,19,13,15,18.60
2013,09,19,13,16,18.70
2013,09,19,13,17,18.80
2013,09,19,13,18,18.80
2013,09,19,13,19,18.80
2013,09,19,13,20,18.80
2013,09,19,13,21,18.70
2013,09,19,13,22,18.70
2013,09,19,13,23,18.80
2013,09,19,13,24,18.80
2013,09,19,13,25,18.90
2013,09,19,13,26,18.90
2013,09,19,13,27,18.90
2013,09,19,13,28,18.90
2013,09,19,13,29,18.90
2013,09,19,13,30,18.90
2013,09,19,13,31,18.80
2013,09,19,13,32,18.80
2013,09,19,13,33,18.80
2013,09,19,13,34,18.70
2013,09,19,13,35,18.80
2013,09,19,13,36,18.80
2013,09,19,13,37,18.90
2013,09,19,13,38,19.00
2013,09,19,13,39,19.00
2013,09,19,13,40,18.90
2013,09,19,13,41,18.90
2013,09,19,13,42,18.90
2013,09,19,13,43,19.00
2013,09,19,13,44,18.90
2013,09,19,13,45,18.90
2013,09,19,13,46,18.80
2013,09,19,13,47,18.70
2013,09,19,13,48,18.70
2013,09,19,13,49,18.80
2013,09,19,13,50,18.80
2013,09,19,13,51,18.80
2013,09,19,13,52,18.70
2013,09,19,13,53,18.70
2013,09,19,13,54,18.60
2013,09,19,13,55,18.60
2013,09,19,13,56,18.60
2013,09,19,13,57,18.50
2013,09,19,13,58,18.60
2013,09,19,13,59,18.60
2013,09,19,14,00,18.70
2013,09,19,14,01,18.80
2013,09,19,14,02,18.90
2013,09,19,14,03,19.00
2013,09,19,14,04,19.00
2013,09,19,14,05,19.10
2013,09,19,14,06,19.10
2013,09,19,14,07,19.10
2013,09,19,14,08,19.10
2013,09,19,14,09,19.10
2013,09,19,14,10,19.10
2013,09,19,14,11,19.10
2013,09,19,14,12,19.10
2013,09,19,14,13,19.10
2013,09,19,14,14,19.20
2013,09,19,14,15,19.30
2013,09,19,14,16,19.30
2013,09,19,14,17,19.30
2013,09,19,14,18,19.20
2013,09,19,14,19,19.20
2013,09,19,14,20,19.20
2013,09,19,14,21,19.20
2013,09,19,14,22,19.20
2013,09,19,14,23,19.30
2013,09,19,14,24,19.40
2013,09,19,14,25,19.30
2013,09,19,14,26,19.30
2013,09,19,14,27,19.30
2013,09,19,14,28,19.30
2013,09,19,14,29,19.50
2013,09,19,14,30,19.50
2013,09,19,14,31,19.50
2013,09,19,14,32,19.40
2013,09,19,14,33,19.40
2013,09,19,14,34,19.30
2013,09,19,14,35,19.30
2013,09,19,14,36,19.30
2013,09,19,14,37,19.40
2013,09,19,14,38,19.30
2013,09,19,14,39,19.40
2013,09,19,14,40,19.40
2013,09,19,14,41,19.50
2013,09,19,14,42,19.40
2013,09,19,14,43,19.20
2013,09,19,14,44,19.10
2013,09,19,14,45,19.10
2013,09,19,14,46,19.20
2013,09,19,14,47,19.20
2013,09,19,14,48,19.20
2013,09,19,14,49,19.20
2013,09,19,14,50,19.20
2013,09,19,14,51,19.20
2013,09,19,14,52,19.30
2013,09,19,14,53,19.40
2013,09,19,14,54,19.40
2013,09,19,14,55,19.30
2013,09,19,14,56,19.30
2013,09,19,14,57,19.30
2013,09,19,14,58,19.30
2013,09,19,14,59,19.40
2013,09,19,15,00,19.50
2013,09,19,15,01,19.60
2013,09,19,15,02,19.70
2013,09,19,15,03,19.80
2013,09,19,15,04,19.90
2013,09,19,15,05,19.90
2013,09,19,15,06,20.00
2013,09,19,15,07,20.00
2013,09,19,15,08,20.00
2013,09,19,15,09,20.00
2013,09,19,15,10,20.10
2013,09,19,15,11,20.20
2013,09,19,15,12,20.20
2013,09,19,15,13,20.30
2013,09,19,15,14,20.30
2013,09,19,15,15,20.20
2013,09,19,15,16,20.20
2013,09,19,15,17,20.20
2013,09,19,15,18,20.10
2013,09,19,15,19,20.20
2013,09,19,15,20,20.20
2013,09,19,15,21,20.20
2013,09,19,15,22,20.30
2013,09,19,15,23,20.30
2013,09,19,15,24,20.30
2013,09,19,15,25,20.20
2013,09,19,15,26,20.20
2013,09,19,15,27,20.20
2013,09,19,15,28,20.20
2013,09,19,15,29,20.20
2013,09,19,15,30,20.10
2013,09,19,15,31,20.10
2013,09,19,15,32,20.10
2013,09,19,15,33,20.10
2013,09,19,15,34,20.20
2013,09,19,15,35,20.20
2013,09,19,15,36,20.20
2013,09,19,15,37,20.20
2013,09,19,15,38,20.20
2013,09,19,15,39,20.20
2013,09,19,15,40,20.10
2013,09,19,15,41,20.00
2013,09,19,15,42,20.00
2013,09,19,15,43,20.10
2013,09,19,15,44,20.10
2013,09,19,15,45,20.10
2013,09,19,15,46,20.10
2013,09,19,15,47,20.20
2013,09,19,15,48,20.20
2013,09,19,15,49,20.30
2013,09,19,15,50,20.30
2013,09,19,15,51,20.30
2013,09,19,15,52,20.40
2013,09,19,15,53,20.50
2013,09,19,15,54,20.70
2013,09,19,15,55,20.80
2013,09,19,15,56,20.80
2013,09,19,15,57,20.80
2013,09,19,15,58,20.80
2013,09,19,15,59,20.80
2013,09,19,16,00,20.80
2013,09,19,16,01,20.70
2013,09,19,16,02,20.70
2013,09,19,16,03,20.80
2013,09,19,16,04,20.90
2013,09,19,16,05,21.00
2013,09,19,16,06,21.10
2013,09,19,16,07,21.10
2013,09,19,16,08,21.10
2013,09,19,16,09,21.00
2013,09,19,16,10,20.90
2013,09,19,16,11,21.00
2013,09,19,16,12,21.00
2013,09,19,16,13,21.10
2013,09,19,16,14,21.00
2013,09,19,16,15,21.00
2013,09,19,16,16,20.90
2013,09,19,16,17,20.80
2013,09,19,16,18,20.70
2013,09,19,16,19,20.70
2013,09,19,16,20,20.60
2013,09,19,16,21,20.70
2013,09,19,16,22,20.70
2013,09,19,16,23,20.70
2013,09,19,16,24,20.70
2013,09,19,16,25,20.80
2013,09,19,16,26,20.80
2013,09,19,16,27,20.90
2013,09,19,16,28,20.90
2013,09,19,16,29,20.90
2013,09,19,16,30,20.80
2013,09,19,16,31,20.70
2013,09,19,16,32,20.70
2013,09,19,16,33,20.70
2013,09,19,16,34,20.70
2013,09,19,16,35,20.80
2013,09,19,16,36,20.80
2013,09,19,16,37,20.90
2013,09,19,16,38,21.00
2013,09,19,16,39,21.10
2013,09,19,16,40,21.20
2013,09,19,16,41,21.20
2013,09,19,16,42,21.20
2013,09,19,16,43,21.20
2013,09,19,16,44,21.20
2013,09,19,16,45,21.30
2013,09,19,16,46,21.30
2013,09,19,16,47,21.20
2013,09,19,16,48,21.10
2013,09,19,16,49,20.90
2013,09,19,16,50,20.90
2013,09,19,16,51,20.80
2013,09,19,16,52,20.80
2013,09,19,16,53,20.70
2013,09,19,16,54,20.70
2013,09,19,16,55,20.60
2013,09,19,16,56,20.50
2013,09,19,16,57,20.40
2013,09,19,16,58,20.40
2013,09,19,16,59,20.50
2013,09,19,17,00,20.50
2013,09,19,17,01,20.60
2013,09,19,17,02,20.60
2013,09,19,17,03,20.60
2013,09,19,17,04,20.60
2013,09,19,17,05,20.60
2013,09,19,17,06,20.50
2013,09,19,17,07,20.40
2013,09,19,17,08,20.40
2013,09,19,17,09,20.30
2013,09,19,17,10,20.30
2013,09,19,17,11,20.30
2013,09,19,17,12,20.30
2013,09,19,17,13,20.30
2013,09,19,17,14,20.30
2013,09,19,17,15,20.30
2013,09,19,17,16,20.30
2013,09,19,17,17,20.30
2013,09,19,17,18,20.30
2013,09,19,17,19,20.30
2013,09,19,17,20,20.30
2013,09,19,17,21,20.30
2013,09,19,17,22,20.30
2013,09,19,17,23,20.30
2013,09,19,17,24,20.30
2013,09,19,17,25,20.30
2013,09,19,17,26,20.30
2013,09,19,17,27,20.30
2013,09,19,17,28,20.20
2013,09,19,17,29,20.20
2013,09,19,17,30,20.10
2013,09,19,17,31,20.10
2013,09,19,17,32,20.20
2013,09,19,17,33,20.10
2013,09,19,17,34,20.10
2013,09,19,17,35,20.10
2013,09,19,17,36,20.10
2013,09,19,17,37,20.10
2013,09,19,17,38,20.10
2013,09,19,17,39,20.00
2013,09,19,17,40,20.00
2013,09,19,17,41,20.00
2013,09,19,17,42,20.00
2013,09,19,17,43,20.00
2013,09,19,17,44,20.00
2013,09,19,17,45,20.00
2013,09,19,17,46,20.00
2013,09,19,17,47,20.00
2013,09,19,17,48,20.00
2013,09,19,17,49,20.00
2013,09,19,17,50,20.00
2013,09,19,17,51,20.00
2013,09,19,17,52,20.10
2013,09,19,17,53,20.10
2013,09,19,17,54,20.10
2013,09,19,17,55,20.20
2013,09,19,17,56,20.20
2013,09,19,17,57,20.20
2013,09,19,17,58,20.20
2013,09,19,17,59,20.10
2013,09,19,18,00,20.10
2013,09,19,18,01,20.00
2013,09,19,18,02,20.00
2013,09,19,18,03,20.00
2013,09,19,18,04,20.00
2013,09,19,18,05,20.00
2013,09,19,18,06,20.00
2013,09,19,18,07,20.00
2013,09,19,18,08,20.00
2013,09,19,18,09,20.10
2013,09,19,18,10,20.10
2013,09,19,18,11,20.10
2013,09,19,18,12,20.20
2013,09,19,18,13,20.10
2013,09,19,18,14,20.10
2013,09,19,18,15,20.10
2013,09,19,18,16,20.10
2013,09,19,18,17,20.10
2013,09,19,18,18,20.10
2013,09,19,18,19,20.10
2013,09,19,18,20,20.10
2013,09,19,18,21,20.00
2013,09,19,18,22,20.00
2013,09,19,18,23,19.90
2013,09,19,18,24,19.90
2013,09,19,18,25,19.90
2013,09,19,18,26,19.80
2013,09,19,18,27,19.80
2013,09,19,18,28,19.80
2013,09,19,18,29,19.80
2013,09,19,18,30,19.80
2013,09,19,18,31,19.80
2013,09,19,18,32,19.80
2013,09,19,18,33,19.70
2013,09,19,18,34,19.70
2013,09,19,18,35,19.70
2013,09,19,18,36,19.70
2013,09,19,18,37,19.70
2013,09,19,18,38,19.70
2013,09,19,18,39,19.70
2013,09,19,18,40,19.70
2013,09,19,18,41,19.60
2013,09,19,18,42,19.60
2013,09,19,18,43,19.50
2013,09,19,18,44,19.50
2013,09,19,18,45,19.50
2013,09,19,18,46,19.40
2013,09,19,18,47,19.40
2013,09,19,18,48,19.30
2013,09,19,18,49,19.30
2013,09,19,18,50,19.30
2013,09,19,18,51,19.30
2013,09,19,18,52,19.20
2013,09,19,18,53,19.20
2013,09,19,18,54,19.20
2013,09,19,18,55,19.20
2013,09,19,18,56,19.10
2013,09,19,18,57,19.10
2013,09,19,18,58,19.10
2013,09,19,18,59,19.10
2013,09,19,19,00,19.10
2013,09,19,19,01,19.10
2013,09,19,19,02,19.10
2013,09,19,19,03,19.10
2013,09,19,19,04,19.10
2013,09,19,19,05,19.10
2013,09,19,19,06,19.10
